Location: ????
(55.5675°N, 37.6272°E)
Time: 08:41:23
(UTC+00:00)

Cosmos 2242 Rocket - Pass Details

Date: 14 April 2026
Orbit: 612 x 646 km, 82.5° (Epoch: 14 May)

Event Time Altitude Azimuth Distance (km) Brightness Sun altitude
Rises 18:23:07 0° 346° (NNW) 2,956 8.1 -14.2°
Reaches altitude 10° 18:25:24 10° 343° (NNW) 2,037 7.2 -14.4°
Maximum altitude 18:29:51 62° 263° (W) 713 4.0 -14.9°
Enters shadow 18:33:42 13° 184° (S) 1,789 5.5 -15.3°
